Chicago Midway, IL

12:00 AM CDT on April 29, 2017 (GMT -0500)
Chicago-Midway

Weather History for KMDW - March, 2013

Change the Weather History Date:

Sunday, March 24, 2013

  Actual Average Record
Temperature  
Mean Temperature 35 °F 42 °F  
Max Temperature 37 °F 50 °F 82 °F (2017)
Min Temperature 32 °F 34 °F 5 °F (1974)
Degree Days  
Heating Degree Days 30 23  
Month to date heating degree days 795 659  
Since 1 July heating degree days 4947 5170  
Cooling Degree Days 0 0  
Month to date cooling degree days 0 0  
Year to date cooling degree days 0 0  
Moisture  
Dew Point 25 °F    
Average Humidity 68    
Maximum Humidity 85    
Minimum Humidity 50    
Precipitation  
Precipitation T in 0.08 in 1.26 in (1969)
Month to date precipitation 1.26 2.05  
Year to date precipitation 5.51 6.05  
Sea Level Pressure  
Sea Level Pressure 29.80 in    
Wind  
Wind Speed 18 mph (NE)    
Max Wind Speed 30 mph    
Max Gust Speed 38 mph    
Visibility 9 miles    
Events Snow    
T = Trace of Precipitation, MM = Missing Value Source: NWS Daily Summary

Daily Weather History Graph

Daily Weather History Graph

Search for Another Location

Airport or City:

Trip Planner

Search our weather history database for the weather conditions in past years. The results will help you decide how hot, cold, wet, or windy it might be!

Date:

Astronomy

Mar. 24, 2013 Rise Set
Actual Time 6:47 AM CDT 7:07 PM CDT
Civil Twilight 6:19 AM CDT 7:35 PM CDT
Nautical Twilight 5:46 AM CDT 8:08 PM CDT
Astronomical Twilight 5:13 AM CDT 8:42 PM CDT
Moon 4:34 PM CDT (3/24) 4:59 AM CDT (3/24)
Length of Visible Light 13h 16m
Length of Day
12h 20m
Waxing Gibbous, 92% of the Moon is Illuminated
Mar 24
Waxing Gibbous
Mar 27
Full
Apr 2
Last Quarter
Apr 10
New
Apr 18
First Quarter

Hourly Weather History & Observations

Time (CDT) Temp. Windchill Dew Point Humidity Pressure Visibility Wind Dir Wind Speed Gust Speed Precip Events Conditions
12:51 AM 33.1 °F 25.5 °F 21.9 °F 64% 30.04 in 10.0 mi NE 9.2 mph - N/A   Overcast
1:51 AM 33.1 °F 24.4 °F 23.0 °F 66% 30.04 in 10.0 mi ENE 11.5 mph - N/A   Overcast
2:51 AM 33.1 °F 23.0 °F 23.0 °F 66% 30.02 in 10.0 mi ENE 15.0 mph - N/A   Overcast
3:51 AM 33.1 °F 24.9 °F 23.0 °F 66% 30.00 in 10.0 mi ENE 10.4 mph - N/A   Overcast
4:51 AM 33.1 °F 23.9 °F 23.0 °F 66% 29.97 in 10.0 mi ENE 12.7 mph - N/A   Overcast
5:51 AM 32.0 °F 23.6 °F 24.1 °F 73% 29.95 in 10.0 mi ENE 10.4 mph - N/A   Overcast
6:51 AM 32.0 °F 23.6 °F 25.0 °F 75% 29.93 in 10.0 mi ENE 10.4 mph - 0.00 in Snow Light Snow
7:51 AM 32.0 °F 22.5 °F 24.1 °F 73% 29.91 in 10.0 mi ENE 12.7 mph - 0.00 in   Overcast
8:51 AM 34.0 °F 23.8 °F 25.0 °F 70% 29.91 in 10.0 mi ENE 16.1 mph - N/A   Overcast
9:51 AM 35.1 °F 23.0 °F 24.1 °F 64% 29.86 in 10.0 mi ENE 24.2 mph 31.1 mph N/A   Mostly Cloudy
10:51 AM 35.1 °F 24.1 °F 23.0 °F 61% 29.83 in 10.0 mi ENE 19.6 mph 32.2 mph N/A   Overcast
11:51 AM 35.1 °F 24.1 °F 23.0 °F 61% 29.82 in 10.0 mi ENE 19.6 mph 32.2 mph N/A   Overcast
12:51 PM 36.0 °F 24.4 °F 24.1 °F 62% 29.79 in 10.0 mi NE 23.0 mph 31.1 mph N/A   Overcast
1:51 PM 35.1 °F 23.3 °F 23.0 °F 61% 29.75 in 10.0 mi NE 23.0 mph 31.1 mph N/A   Overcast
2:51 PM 36.0 °F 23.9 °F 23.0 °F 59% 29.70 in 10.0 mi NE 25.3 mph 36.8 mph N/A   Overcast
3:51 PM 36.0 °F 23.7 °F 24.1 °F 62% 29.68 in 10.0 mi NNE 26.5 mph 33.4 mph N/A   Overcast
4:51 PM 36.0 °F 25.0 °F 25.0 °F 64% 29.70 in 10.0 mi NNE 20.7 mph 26.5 mph N/A   Overcast
5:51 PM 35.1 °F 23.5 °F 24.1 °F 64% 29.72 in 10.0 mi NNE 21.9 mph 32.2 mph N/A   Overcast
6:51 PM 35.1 °F 25.5 °F 27.0 °F 72% 29.72 in 8.0 mi North 15.0 mph 25.3 mph 0.00 in Snow Light Snow
7:02 PM 35.6 °F 25.9 °F 26.6 °F 70% 29.69 in 1.8 mi North 16.1 mph 23.0 mph 0.00 in Snow Light Snow
7:07 PM 33.8 °F 22.8 °F 28.4 °F 81% 29.69 in 5.0 mi North 18.4 mph 24.2 mph 0.00 in Snow Light Snow
7:20 PM 33.8 °F 22.8 °F 28.4 °F 81% 29.68 in 2.0 mi NNE 18.4 mph 25.3 mph 0.00 in Snow Light Snow
7:24 PM 33.8 °F 23.9 °F 28.4 °F 81% 29.68 in 1.0 mi North 15.0 mph 25.3 mph 0.00 in Snow Light Snow
7:51 PM 33.1 °F 22.6 °F 28.9 °F 85% 29.71 in 1.5 mi NNE 16.1 mph 27.6 mph 0.00 in Snow Light Snow
7:55 PM 33.8 °F 21.3 °F 28.4 °F 81% 29.68 in 1.8 mi NNE 24.2 mph 34.5 mph 0.00 in Snow Light Snow
8:05 PM 33.8 °F 22.2 °F 28.4 °F 81% 29.68 in 9.0 mi NNE 20.7 mph 36.8 mph 0.00 in Snow Light Snow
8:49 PM 35.6 °F 26.2 °F 26.6 °F 70% 29.69 in 10.0 mi NNE 15.0 mph 29.9 mph 0.00 in   Overcast
8:51 PM 35.1 °F 25.5 °F 26.1 °F 70% 29.72 in 10.0 mi NNE 15.0 mph 29.9 mph 0.00 in   Overcast
9:51 PM 35.1 °F 23.5 °F 25.0 °F 67% 29.72 in 10.0 mi NNE 21.9 mph 27.6 mph 0.00 in Snow Light Snow
10:51 PM 35.1 °F 24.1 °F 25.0 °F 67% 29.71 in 10.0 mi NNE 19.6 mph 26.5 mph 0.00 in   Overcast
11:51 PM 34.0 °F 23.8 °F 25.0 °F 70% 29.71 in 10.0 mi NE 16.1 mph - N/A   Overcast